Tracking 29030 objects as of 25-Jun-2024
HD Live streaming from Space Station
objects crossing your sky now

CZ-4C DEB

Track CZ-4C DEB now!
10-day predictions


NORAD ID: 43628
Int'l Code: 2013-065F
Perigee: 684.0 km
Apogee: 956.2 km
Inclination: 100.5 °
Period: 101.1 minutes
Semi major axis: 7191 km
RCS: Unknown
Launch date: November 20, 2013
Source: People's Republic of China (PRC)
Launch site: Taiyaun Space Center, China (TSC)

Note: This is SATELLITE DEBRIS
Your satellite tracking list
Your tracking list is empty




NASA's NSSDC Master Catalog

Two Line Element Set (TLE):
1 43628U 13065E   24175.44669206  .00006135  00000-0  22557-2 0  9992
2 43628 100.5415 353.3583 0189283  11.8446 348.7088 14.23674216300081
Source of the keplerian elements: AFSPC